{"data":{"norad_id":89403,"epoch":"2026-09-14T13:28:11.080704Z","epoch_age_seconds":534975,"freshness":"STALE","line1":"1 89403U          26257.56123936  .00001827  00000+0  61162-2 0  9996","line2":"2 89403  90.2555  12.1388 0030342 208.1509 164.3418 12.99063664513633","mean_motion":12.99063664,"eccentricity":0.0030342,"inclination_deg":90.2555,"raan_deg":12.1388,"arg_perigee_deg":208.1509,"mean_anomaly_deg":164.3418,"bstar":0.0061162,"rev_number":51363,"period_min":110.84907075039,"perigee_km":1242.5679063068,"apogee_km":1288.9541370616,"semimajor_km":7643.8980216842,"source":"CELESTRAK","updated_at":"2026-09-20T09:00:32.485357Z"}}